• Join FlightAware (Why Join?)
  • Login
  • US Flag 
Gobble Gobble! 
04:58AM EST


 

Airport Tracker/Info


-or-


 

Live Flight TrackerFlight Track Log ✈ CTL22 ✈ 19-Apr-2013 ✈ KBKL - KGRR

Flight Track Log - Related Links

Times and Time Zones

All times are in EDT time to prevent confusion due to time zone crossing. See the CTL22 flight status page for this flight to view local times or setup timezone preferences in your user account.

Time Position Orientation Groundspeed Altitude Reporting Facility
EDT Latitude Longitude Course Direction KTS MPH feet Rate Location/Type
09:56PM 41.5519 -81.7181 339° North 151 174 1,800  Level Cleveland Center
09:57PM 41.5789 -81.7461 322° Northwest 117 135 2,900 1,020 Climbing Cleveland Center
09:58PM 41.5972 -81.7881 300° West 126 145 3,900 480 Climbing Cleveland Center
09:59PM 41.6156 -81.8275 302° West 130 150 3,900  Level Cleveland Center
10:00PM 41.6378 -81.8750 302° West 132 152 3,900  Level Cleveland Center
10:00PM 41.6481 -81.9003 299° West 132 152 4,000 60 Climbing Cleveland Center
10:01PM 41.6583 -81.9200 305° West 132 152 4,000  Level Cleveland Center
10:02PM 41.6744 -81.9647 296° West 133 153 4,000  Level Cleveland Center
10:03PM 41.6928 -82.0042 302° West 135 155 4,000  Level Cleveland Center
10:04PM 41.7131 -82.0464 303° West 132 152 4,000  Level Cleveland Center
10:05PM 41.7353 -82.0969 301° West 134 154 4,000  Level Cleveland Center
10:06PM 41.7492 -82.1417 293° West 128 147 4,100  Climbing Cleveland Center
10:07PM 41.7675 -82.1783 304° West 132 152 4,000 -60 Descending Cleveland Center
10:08PM 41.7856 -82.2206 300° West 134 154 4,000  Level Cleveland Center
10:09PM 41.8039 -82.2600 302° West 129 148 4,000 -120 Level Cleveland Center
10:09PM 41.8119 -82.2742 307° West 128 147 3,900 -120 Descending Cleveland Center
10:11PM 41.8364 -82.3222 304° West 132 152 3,900 -60 Level Cleveland Center
10:12PM 41.8544 -82.3644 300° West 129 148 3,800  Descending Cleveland Center
10:12PM 41.8664 -82.3983 295° West 123 142 4,000 60 Climbing Cleveland Center
10:13PM 41.8867 -82.4408 303° West 124 143 4,000  Level Cleveland Center
10:15PM 41.9044 -82.4858 298° West 127 146 4,000  Level Cleveland Center
10:15PM 41.9186 -82.5197 299° West 125 144 4,000  Level Cleveland Center
10:16PM 41.9386 -82.5678 299° West 131 151 4,000 -60 Level Cleveland Center
10:18PM 41.9608 -82.6133 303° West 131 151 3,900  Descending Cleveland Center
10:19PM 41.9747 -82.6528 295° West 133 153 4,000  Climbing Cleveland Center
10:20PM 41.9906 -82.6981 295° West 130 150 3,900  Descending Cleveland Center
10:21PM 42.0083 -82.7461 296° West 127 146 4,000  Climbing Cleveland Center
10:22PM 42.0264 -82.7886 300° West 127 146 4,000  Level Cleveland Center
10:23PM 42.0442 -82.8339 298° West 133 153 4,000  Level Cleveland Center
10:24PM 42.0642 -82.8794 301° West 137 158 4,000 -60 Level Cleveland Center
10:25PM 42.0781 -82.9164 297° West 135 155 3,900 -60 Descending Cleveland Center
10:26PM 42.0958 -82.9644 297° West 128 147 3,900  Level Cleveland Center
10:27PM 42.1136 -83.0100 298° West 129 148 4,000  Climbing Cleveland Center
10:28PM 42.1333 -83.0611 298° West 133 153 4,000  Level Cleveland Center
10:29PM 42.1472 -83.0981 297° West 134 154 4,000 -60 Level Cleveland Center
10:30PM 42.1669 -83.1464 299° West 134 154 3,900  Descending Cleveland Center
10:31PM 42.1828 -83.1836 300° West 132 152 4,000  Climbing Cleveland Center
10:32PM 42.1964 -83.2289 292° West 130 150 3,900  Descending Cleveland Center
10:33PM 42.2056 -83.2769 284° West 129 148 4,000  Climbing Cleveland Center
10:34PM 42.2211 -83.3225 295° West 131 151 4,000  Level Cleveland Center
10:35PM 42.2306 -83.3622 288° West 131 151 4,100  Climbing Cleveland Center
10:36PM 42.2419 -83.4106 288° West 135 155 4,000  Descending Cleveland Center
10:37PM 42.2556 -83.4558 292° West 130 150 4,100  Climbing Cleveland Center
10:38PM 42.2689 -83.5014 292° West 129 148 4,000 -60 Descending Cleveland Center
10:39PM 42.2781 -83.5497 284° West 129 148 4,000  Level Cleveland Center
10:40PM 42.2917 -83.5894 295° West 129 148 4,100  Climbing Cleveland Center
10:41PM 42.3069 -83.6381 293° West 130 150 4,100 -60 Level Cleveland Center
10:42PM 42.3203 -83.6836 292° West 131 151 4,000 -120 Descending Cleveland Center
10:43PM 42.3317 -83.7292 289° West 130 150 3,900  Descending Cleveland Center
10:44PM 42.3431 -83.7747 289° West 129 148 4,000 -60 Climbing Cleveland Center
10:46PM 42.3701 -83.8563 294° West  Level FlightAware Approximate
10:53PM 42.4724 -84.1686 293° West  Level FlightAware Approximate
10:54PM 42.4862 -84.2137 293° West  Level FlightAware Approximate
10:55PM 42.5000 -84.2589 293° West  Level FlightAware Approximate
10:56PM 42.5138 -84.3040 293° West  Level FlightAware Approximate
10:57PM 42.5276 -84.3492 292° West  Level FlightAware Approximate
10:58PM 42.5414 -84.3944 292° West  Level FlightAware Approximate
10:59PM 42.5551 -84.4396 292° West  Level FlightAware Approximate
11:00PM 42.5688 -84.4848 292° West  Level FlightAware Approximate
11:01PM 42.5826 -84.5304 292° West  Level FlightAware Approximate
11:02PM 42.5964 -84.5759 292° West  Level FlightAware Approximate
11:03PM 42.6101 -84.6214 292° West  Level FlightAware Approximate
11:04PM 42.6238 -84.6670 292° West  Level FlightAware Approximate
11:04PM 42.6219 -84.7133 292° West 149 171 3,000  Level Chicago Center
11:05PM 42.6376 -84.7126 292° West  Level FlightAware Approximate
11:05PM 42.6331 -84.7583 289° West 128 147 3,000  Level Chicago Center
11:06PM 42.6512 -84.7582 292° West  Level FlightAware Approximate
11:06PM 42.6450 -84.8039 290° West 129 148 3,000  Level Chicago Center
11:07PM 42.6649 -84.8038 292° West  Level FlightAware Approximate
11:07PM 42.6581 -84.8472 292° West 127 146 2,900  Level Chicago Center
11:08PM 42.6786 -84.8495 292° West  Level FlightAware Approximate
11:08PM 42.6694 -84.8931 289° West 128 147 3,000  Level Chicago Center
11:09PM 42.6922 -84.8952 292° West  Level FlightAware Approximate
11:09PM 42.6836 -84.9372 294° West 128 147 3,000  Level Chicago Center
11:10PM 42.6986 -84.9897 291° West 125 144 3,000 -60 Level Chicago Center
11:11PM 42.7119 -85.0328 293° West 124 143 2,900  Descending Chicago Center
11:12PM 42.7258 -85.0775 293° West 127 146 3,000  Climbing Chicago Center
11:13PM 42.7394 -85.1228 292° West 130 150 2,900 -60 Descending Chicago Center
11:14PM 42.7539 -85.1669 294° West 129 148 2,900  Level Chicago Center
11:15PM 42.7669 -85.2119 292° West 128 147 3,000 -60 Climbing Chicago Center
11:16PM 42.7817 -85.2600 293° West 132 152 2,800 -240 Descending Chicago Center
11:17PM 42.7972 -85.3081 294° West 136 157 2,600 -180 Descending Chicago Center
11:18PM 42.8150 -85.3531 298° West 137 158 2,500 -300 Descending Chicago Center
11:19PM 42.8356 -85.3983 302° West 138 159 2,100 -300 Descending Chicago Center
11:20PM 42.8592 -85.4450 305° West 143 165 1,900 -540 Descending Chicago Center
11:21PM 42.8764 -85.4897 298° West 141 162 1,100 -360 Descending Chicago Center
11:22PM 42.8886 -85.5289 293° West 129 148 1,200 60 Climbing Chicago Center
11:24PM 42.8808 -85.5228 270° West  Level Estimated